Погода в Виноградном

Россия / Республика Калмыкия     46°13′09″N   41°58′02″E
темп.,
°C
ветер,
м/с
пор.,
м/с
влажн.,
%
обл.,
%
осадки,
мм/ч
давл.,
гПа
погр.,
м
13 июня, вс
вс1300:00+19ссз1186100 2.0 101211
03:00+17ссз239438 5.0 101248
06:00+18ссв118886 2.3 101294
09:00+22юз117295 3.3 1012431
12:00+22юв2267100 2.3 1012695
15:00+24вюв225882 2.3 10121100
18:00+24ююв1162100 0.1 1011704
21:00+20ю2280100 2.9 101220
14 июня, пн
пн1400:00+18ююв2287100 0.3 101225
03:00+17ююв229056 0.3 101215
06:00+18юв23864 0.0 1012120
09:00+23вюв22665 0.0 1012639
12:00+26всв335438 0.0 10121627
15:00+27св435091 0.0 10111813
18:00+26всв235648 0.0 1011856
21:00+21всв467174 0.0 101197
15 июня, вт
вт1500:00+20всв487799 0.0 1010158
03:00+19всв398216 0.0 1010184
06:00+19всв498495 0.0 1009283
09:00+24св456599 0.0 1009660
12:00+27св225470 0.1 10091163
15:00+28с224996 0.1 10091636
18:00+27с115799 0.1 1008477
21:00+24в1165100 0.3 100911
16 июня, ср
ср1600:00+21сз11760 0.0 100912
03:00+20в22810 0.0 100823
06:00+20вюв128795 4.4 1010100
09:00+24вюв127014 5.8 1010520
12:00+26ююз456592 0.3 10101035
15:00+22зсз678561 2.2 1011609
18:00+21зсз588898 0.5 1011475
21:00+19сз4994100 1.5 1013356
17 июня, чт
чт1700:00+18ссз3795100 0.1 1012250
03:00+18ссз369857 0.1 1011186
06:00+19ссз5109241 0.1 1010372
09:00+23ссв4575100 0.7 1009663
12:00+29всв3551100 0.0 10081592
15:00+31в464399 0.0 10071988
18:00+23зюз7108594 0.6 1009341
21:00+18зсз61296100 7.8 1012445